Regional Weather Roundup
Issued by NWS

Home | Current Version | Previous Version | Graphics & Text | Print | Product List | Glossary On
Versions: 1 2 3 4 5 6 7 8 9 10 11 12 13 14 15 16 17 18 19 20 21 22 23 24 25 26 27 28 29 30 31 32 33 34 35 36 37 38 39 40 41 42 43 44 45 46 47 48 49 50
000
ASUS43 KIND 291609
RWRIN

WEATHER ROUNDUP FOR INDIANA
NATIONAL WEATHER SERVICE INDIANAPOLIS IN
1200 PM EDT SUN MAR 29 2015

NOTE: "FAIR" INDICATES FEW OR NO CLOUDS BELOW 12,000 FEET WITH NO
SIGNIFICANT WEATHER AND/OR OBSTRUCTIONS TO VISIBILITY.

* - STATION DOES NOT REPORT WEATHER SUCH AS PRECIPITATION OR FOG.

+ - STATION NOT QUALITY CONTROLLED BY THE NATIONAL WEATHER SERVICE.
    USE DATA WITH CAUTION...ESPECIALLY DEWPOINT AND RELATIVE
    HUMIDITY OBSERVATIONS.

INZ001>003-010>013-019-020-291700-
NORTHWEST INDIANA

CITY           SKY/WX    TMP DP  RH WIND       PRES   REMARKS
GARY /AIRPORT/ PTSUNNY   41  10  28 S18G33    30.05F
KNOX *+          N/A     39  -9  12 S24       30.11F
LA PORTE +     CLOUDY    40  19  42 S18G26    30.10F
MICHIGAN CITY+ CLOUDY    37  12  35 S21G33    30.07F
MONTICELLO +   MOSUNNY   39  18  42 S12G21    30.14F
RENSSELAER +   CLOUDY    39  21  48 S21G31    30.11F
VALPARAISO     CLOUDY    39  17  41 S21G33    30.07F

$$

LMZ046-743>745-291700-
SOUTHERN LAKE MICHIGAN

STATION/POSITION TIME  TEMP WIND        PRES
                       AIR  DIR/SP/G
                 (UTC) (F)  (DEG/KT/KT) (MB)
BURNS HARBOR     1600   38  190/ 23/ 31 1018.3F
MICHIGAN CITY    1600   37  170/ 21/ 25   N/A

$$

INZ004-005-014>016-021>024-291700-
NORTH CENTRAL INDIANA

CITY           SKY/WX    TMP DP  RH WIND       PRES   REMARKS
ELKHART        MOSUNNY   39  12  33 S17G32    30.12F
GOSHEN         MOSUNNY   39  17  41 S24G30    30.13F
LOGANSPORT +   MOSUNNY   39  21  48 S18G24    30.17F
PERU/GRISSOM   MOSUNNY   40  19  41 S18G25    30.16F
ROCHESTER +    MOSUNNY   41  19  42 S20G26    30.16F
SOUTH BEND     PTSUNNY   41  13  31 S23G30    30.10F
WARSAW +       SUNNY     37  18  44 S15G25    30.15F

$$

INZ006>009-017-018-025>027-291700-
NORTHEAST INDIANA

CITY           SKY/WX    TMP DP  RH WIND       PRES   REMARKS
ANGOLA *+      SUNNY     36  19  51 S13       30.14F
AUBURN +       MOSUNNY   39  18  41 S12G20    30.18F
FORT WAYNE     PTSUNNY   39  20  46 S20G28    30.19F
HUNTINGTON +   MOSUNNY   39  14  36 S13G20    30.19F

$$

INZ028-029-035-036-043>045-051>053-291700-
WEST CENTRAL INDIANA

CITY           SKY/WX    TMP DP  RH WIND       PRES   REMARKS
CRAWFORDSVL +  MOSUNNY   40  13  33 S15G23    30.16F
GREENCASTLE +  MOSUNNY   41  10  28 S15G23    30.19F
LAFAYETTE      MOSUNNY   40  15  36 S21G28    30.14F
TERRE HAUTE    MOSUNNY   43  21  41 S18G26    30.19F

$$

INZ030>032-037>040-046>048-054>057-064-065-291700-
CENTRAL INDIANA

CITY           SKY/WX    TMP DP  RH WIND       PRES   REMARKS
CP ATTERBURY + MOSUNNY   41  19  42 S12       30.25F
FISHERS *+     MOSUNNY   39  21  48 S14G22    30.22F
FRANKFORT +    MOSUNNY   40  22  48 S18G24    30.18F
GREENWOOD *+   MOSUNNY   41  16  36 S14       30.24F
INDIANAPOLIS   PTSUNNY   42  14  32 S18       30.20F
-EAGLE CREEK   MOSUNNY   41  15  35 S14G23    30.22F
KOKOMO *+        N/A     39  21  48 S21G28    30.18F
MARION +       MOSUNNY   39  19  44 S18G26    30.21F
MT COMFORT *+  MOSUNNY   39   9  28 S17G23    30.22F
SHELBYVILLE    MOSUNNY   41  19  41 S21G28    30.23F
ZIONSVILLE +   MOSUNNY   40  16  37 S20       30.20F

$$

INZ033-034-041-042-049-050-058-059-291700-
EAST CENTRAL INDIANA

CITY           SKY/WX    TMP DP  RH WIND       PRES   REMARKS
MUNCIE         MOSUNNY   39  17  41 S18G26    30.21F

$$

INZ060-061-067>069-081>083-085>088-291700-
SOUTHWEST INDIANA

CITY           SKY/WX    TMP DP  RH WIND       PRES   REMARKS
EVANSVILLE     SUNNY     47  21  35 S15G22    30.26F
HUNTINGBURG *+ SUNNY     45  19  36 S15       30.27S
WASHINGTON +   SUNNY     43  19  37 S16       30.24F

$$

INZ062-063-066-070>080-084-089>092-291700-
SOUTH CENTRAL AND SOUTHEAST INDIANA

CITY           SKY/WX    TMP DP  RH WIND       PRES   REMARKS
BEDFORD +      SUNNY     43  14  31 S12G17    30.25F
BLOOMINGTON    MOSUNNY   43  18  36 S15G22    30.23R
NORTH VERNON + SUNNY     41  14  33 S15G21    30.28F
SEYMOUR +      SUNNY     43  21  42 S14       30.28F

$$




USA.gov is the U.S. government's official web portal to all federal, state and local government web resources and services.